K0SNA Weather Reports


Display with metric or nautical units.
time (UTC)temp
F
wind
direction
speed
MPH
gust
MPH
rain 1hr
in
rain 24hr
in
rain mn
in
humidity
%
barometer
mb
20260507234618 58 246 2.0 9.0 0.00 0.00 0.00 27 1009.9
20260507234115 58 222 2.0 5.0 0.00 0.00 0.00 27 1009.9
20260507233612 58 241 3.0 6.0 0.00 0.00 0.00 27 1009.8
20260507233110 58 323 4.0 7.0 0.00 0.00 0.00 27 1009.9
20260507232611 58 307 4.0 5.0 0.00 0.00 0.00 27 1010.0
20260507232104 58 321 3.0 7.0 0.00 0.00 0.00 27 1010.0
20260507231600 58 198 2.0 5.0 0.00 0.00 0.00 27 1009.9
20260507231057 58 281 3.0 3.0 0.00 0.00 0.00 27 1009.9
20260507230554 58 191 0.0 6.0 0.00 0.00 0.00 26 1010.0
20260507230050 59 295 5.0 6.0 0.00 0.00 0.00 26 1010.1
20260507225545 58 294 5.0 8.0 0.00 0.00 0.00 26 1010.0
20260507225042 58 316 5.0 7.0 0.00 0.00 0.00 25 1010.0
20260507224537 58 245 3.0 3.0 0.00 0.00 0.00 27 1010.2
20260507224035 59 130 1.0 8.0 0.00 0.00 0.00 26 1010.3
20260507223531 59 225 2.0 3.0 0.00 0.00 0.00 27 1010.4
20260507223028 59 265 4.0 6.0 0.00 0.00 0.00 25 1010.3
20260507222525 59 292 2.0 6.0 0.00 0.00 0.00 26 1010.2
20260507222021 58 89 2.0 6.0 0.00 0.00 0.00 26 1010.2
20260507221518 58 82 3.0 6.0 0.00 0.00 0.00 27 1010.2
20260507221015 59 280 4.0 5.0 0.00 0.00 0.00 26 1010.3
20260507220512 58 286 3.0 5.0 0.00 0.00 0.00 26 1010.3
20260507220009 59 312 5.0 8.0 0.00 0.00 0.00 26 1010.4
20260507215505 58 10 3.0 5.0 0.00 0.00 0.00 26 1010.5
20260507215003 57 358 6.0 8.0 0.00 0.00 0.00 26 1010.5
20260507214500 58 310 7.0 14.0 0.00 0.00 0.00 25 1010.4
20260507213955 59 308 3.0 7.0 0.00 0.00 0.00 26 1010.4
20260507213453 58 225 1.0 8.0 0.00 0.00 0.00 26 1010.4
20260507212949 57 264 4.0 6.0 0.00 0.00 0.00 27 1010.4
20260507212445 59 337 6.0 8.0 0.00 0.00 0.00 27 1010.6
20260507211942 58 337 4.0 5.0 0.00 0.00 0.00 26 1010.6
20260507211438 59 254 3.0 5.0 0.00 0.00 0.00 26 1010.7
20260507210935 58 213 1.0 3.0 0.00 0.00 0.00 26 1010.8
20260507210432 57 236 1.0 5.0 0.00 0.00 0.00 26 1010.9
20260507205929 57 262 2.0 6.0 0.00 0.00 0.00 28 1010.9
20260507205426 59 10 3.0 6.0 0.00 0.00 0.00 26 1010.9
20260507204922 58 215 0.0 3.0 0.00 0.00 0.00 26 1010.9
20260507204419 57 133 2.0 3.0 0.00 0.00 0.00 26 1011.0
20260507203916 57 226 4.0 7.0 0.00 0.00 0.00 29 1011.1
20260507203414 58 54 5.0 7.0 0.00 0.00 0.00 26 1011.3
20260507202910 57 242 2.0 7.0 0.00 0.00 0.00 26 1011.1
20260507202407 57 345 7.0 8.0 0.00 0.00 0.00 26 1011.3
20260507201902 56 332 5.0 7.0 0.00 0.00 0.00 26 1011.2
20260507201358 56 212 1.0 3.0 0.00 0.00 0.00 28 1011.3
20260507200854 56 209 1.0 5.0 0.00 0.00 0.00 27 1011.2
20260507200351 57 205 1.0 3.0 0.00 0.00 0.00 25 1011.4
20260507195847 56 221 2.0 8.0 0.00 0.00 0.00 28 1011.6
20260507195344 57 241 2.0 5.0 0.00 0.00 0.00 27 1011.5
20260507194841 57 234 3.0 5.0 0.00 0.00 0.00 27 1011.8
20260507194338 56 202 2.0 3.0 0.00 0.00 0.00 27 1011.4
20260507193835 56 220 2.0 3.0 0.00 0.00 0.00 26 1011.8
20260507193332 56 240 3.0 5.0 0.00 0.00 0.00 28 1011.7
20260507192828 54 320 7.0 8.0 0.00 0.00 0.00 27 1011.7
20260507192324 55 27 4.0 6.0 0.00 0.00 0.00 27 1011.7
20260507191820 54 296 4.0 6.0 0.00 0.00 0.00 29 1011.7
20260507191317 56 287 7.0 10.0 0.00 0.00 0.00 28 1011.7
20260507190814 56 207 1.0 5.0 0.00 0.00 0.00 26 1011.8
20260507190313 55 251 2.0 5.0 0.00 0.00 0.00 28 1011.9
20260507185811 57 187 1.0 5.0 0.00 0.00 0.00 27 1011.7
20260507185307 56 197 0.0 5.0 0.00 0.00 0.00 29 1012.0
20260507184805 56 223 2.0 3.0 0.00 0.00 0.00 27 1011.8
20260507184303 56 228 2.0 3.0 0.00 0.00 0.00 29 1012.0
20260507183759 54 358 4.0 5.0 0.00 0.00 0.00 28 1012.1
20260507183256 53 50 3.0 6.0 0.00 0.00 0.00 29 1011.9
20260507182754 53 193 2.0 7.0 0.00 0.00 0.00 28 1012.0
20260507182248 55 32 3.0 5.0 0.00 0.00 0.00 30 1012.0
20260507181745 53 151 1.0 3.0 0.00 0.00 0.00 29 1012.1
20260507181242 53 181 4.0 5.0 0.00 0.00 0.00 29 1012.0
20260507180738 53 26 7.0 9.0 0.00 0.00 0.00 31 1012.1
20260507180236 53 246 4.0 8.0 0.00 0.00 0.00 30 1012.1
20260507175731 53 318 5.0 6.0 0.00 0.00 0.00 30 1012.0
20260507175228 55 40 4.0 7.0 0.00 0.00 0.00 29 1012.2
20260507174725 55 195 0.0 1.0 0.00 0.00 0.00 30 1012.1
20260507174223 53 212 1.0 6.0 0.00 0.00 0.00 31 1012.3
20260507173721 52 354 4.0 7.0 0.00 0.00 0.00 31 1012.4
20260507173217 53 337 6.0 9.0 0.00 0.00 0.00 30 1012.4
20260507172714 53 322 5.0 6.0 0.00 0.00 0.00 30 1012.4
20260507172211 52 276 5.0 6.0 0.00 0.00 0.00 30 1012.3
20260507171711 52 328 5.0 8.0 0.00 0.00 0.00 31 1012.4
20260507171209 54 323 4.0 5.0 0.00 0.00 0.00 30 1012.5
20260507170705 52 229 1.0 2.0 0.00 0.00 0.00 31 1012.5
20260507170202 51 194 1.0 6.0 0.00 0.00 0.00 31 1012.4
20260507165658 51 181 3.0 5.0 0.00 0.00 0.00 32 1012.6
20260507165154 53 191 3.0 5.0 0.00 0.00 0.00 30 1012.6
20260507164650 54 201 2.0 3.0 0.00 0.00 0.00 30 1012.7
20260507164148 52 197 2.0 2.0 0.00 0.00 0.00 30 1012.8
20260507163644 51 186 1.0 2.0 0.00 0.00 0.00 32 1013.1
20260507163143 51 209 4.0 6.0 0.00 0.00 0.00 33 1012.8
20260507162638 53 320 4.0 6.0 0.00 0.00 0.00 32 1012.9
20260507162134 51 177 1.0 2.0 0.00 0.00 0.00 35 1012.8
20260507161631 51 147 1.0 2.0 0.00 0.00 0.00 36 1013.0
20260507161127 50 209 3.0 3.0 0.00 0.00 0.00 35 1013.1
20260507160618 51 211 2.0 5.0 0.00 0.00 0.00 36 1013.2
20260507160115 50 140 2.0 6.0 0.00 0.00 0.00 35 1013.1
20260507155610 51 203 0.0 5.0 0.00 0.00 0.00 35 1012.9
20260507155107 51 193 3.0 3.0 0.00 0.00 0.00 34 1013.0
20260507154604 50 252 2.0 3.0 0.00 0.00 0.00 37 1013.3
20260507154101 53 316 4.0 5.0 0.00 0.00 0.00 35 1013.0
20260507153558 51 183 0.0 3.0 0.00 0.00 0.00 36 1013.1
20260507153054 50 197 2.0 2.0 0.00 0.00 0.00 38 1013.2
20260507152550 49 7 4.0 5.0 0.00 0.00 0.00 38 1013.3
20260507152046 49 94 2.0 2.0 0.00 0.00 0.00 39 1013.3
20260507151543 49 280 3.0 3.0 0.00 0.00 0.00 41 1013.3
20260507151040 48 184 1.0 3.0 0.00 0.00 0.00 41 1013.1
20260507150537 50 232 3.0 5.0 0.00 0.00 0.00 41 1013.3
20260507150034 50 182 0.0 3.0 0.00 0.00 0.00 40 1013.2
20260507145528 48 167 1.0 3.0 0.00 0.00 0.00 42 1013.1
20260507145027 49 126 2.0 2.0 0.00 0.00 0.00 41 1013.2
20260507144523 48 206 2.0 2.0 0.00 0.00 0.00 40 1013.3
20260507144021 47 181 2.0 2.0 0.00 0.00 0.00 43 1013.2
20260507143518 47 210 2.0 3.0 0.00 0.00 0.00 44 1013.3
20260507143015 46 185 1.0 3.0 0.00 0.00 0.00 44 1013.4
20260507142510 46 174 1.0 5.0 0.00 0.00 0.00 45 1013.4
20260507142007 46 215 2.0 5.0 0.00 0.00 0.00 47 1013.4
20260507141503 46 188 3.0 5.0 0.00 0.00 0.00 46 1013.4
20260507141000 47 206 2.0 2.0 0.00 0.00 0.00 45 1013.7
20260507140456 46 190 1.0 2.0 0.00 0.00 0.00 44 1013.5
20260507135954 45 227 3.0 3.0 0.00 0.00 0.00 48 1013.7
20260507135451 46 226 4.0 5.0 0.00 0.00 0.00 48 1013.5
20260507134948 45 229 2.0 5.0 0.00 0.00 0.00 51 1013.7
20260507134444 45 193 0.0 2.0 0.00 0.00 0.00 49 1013.7
20260507133941 45 194 1.0 3.0 0.00 0.00 0.00 52 1013.8
20260507133437 46 197 0.0 2.0 0.00 0.00 0.00 57 1013.8
20260507132936 44 194 0.0 1.0 0.00 0.00 0.00 59 1013.8
20260507132431 44 191 0.0 3.0 0.00 0.00 0.00 58 1013.7
20260507131928 44 183 0.0 0.0 0.00 0.00 0.00 57 1013.9
20260507131425 44 202 2.0 3.0 0.00 0.00 0.00 59 1013.7
20260507130922 44 178 0.0 0.0 0.00 0.00 0.00 62 1013.9
20260507130419 42 190 0.0 0.0 0.00 0.00 0.00 63 1013.7
20260507125918 41 189 0.0 1.0 0.00 0.00 0.00 67 1013.9
20260507125415 40 189 0.0 0.0 0.00 0.00 0.00 68 1013.9
20260507124913 41 189 0.0 0.0 0.00 0.00 0.00 68 1014.0
20260507124408 40 190 0.0 0.0 0.00 0.00 0.00 70 1014.0
20260507123907 40 189 0.0 0.0 0.00 0.00 0.00 70 1013.9
20260507123404 39 190 0.0 0.0 0.00 0.00 0.00 75 1014.0
20260507122900 37 190 0.0 0.0 0.00 0.00 0.00 79 1014.0
20260507122355 35 190 0.0 0.0 0.00 0.00 0.00 81 1014.0
20260507121852 35 190 0.0 0.0 0.00 0.00 0.00 83 1014.0
20260507121347 34 193 0.0 0.0 0.00 0.00 0.00 86 1014.1
20260507120844 33 194 0.0 0.0 0.00 0.00 0.00 87 1014.1
20260507120341 32 194 0.0 0.0 0.00 0.00 0.00 88 1014.1
20260507115837 31 194 0.0 0.0 0.00 0.00 0.00 89 1013.9
20260507115332 30 195 0.0 0.0 0.00 0.00 0.00 90 1014.1
20260507114828 30 195 0.0 0.0 0.00 0.00 0.00 90 1014.1
20260507114326 30 195 0.0 0.0 0.00 0.00 0.00 90 1014.0
20260507113823 29 195 0.0 0.0 0.00 0.00 0.00 90 1014.0
20260507113320 29 195 0.0 0.0 0.00 0.00 0.00 90 1013.8
20260507112818 29 195 0.0 0.0 0.00 0.00 0.00 90 1013.9
20260507112314 29 195 0.0 0.0 0.00 0.00 0.00 90 1014.0
20260507111812 28 196 0.0 0.0 0.00 0.00 0.00 90 1013.9
20260507111309 28 196 0.0 0.0 0.00 0.00 0.00 90 1013.9
20260507110805 28 197 0.0 0.0 0.00 0.00 0.00 90 1013.9
20260507110301 28 197 0.0 0.0 0.00 0.00 0.00 90 1014.0
20260507105758 29 197 0.0 0.0 0.00 0.00 0.00 90 1013.8
20260507105254 29 197 0.0 0.0 0.00 0.00 0.00 90 1013.9
20260507104752 29 197 0.0 0.0 0.00 0.00 0.00 90 1013.9
20260507104248 29 197 0.0 0.0 0.00 0.00 0.00 89 1013.9
20260507103744 29 197 0.0 0.0 0.00 0.00 0.00 89 1013.8
20260507103240 28 197 0.0 0.0 0.00 0.00 0.00 89 1013.9
20260507102737 29 197 0.0 0.0 0.00 0.00 0.00 89 1013.9
20260507102234 29 197 0.0 0.0 0.00 0.00 0.00 88 1013.8
20260507101730 29 197 0.0 0.0 0.00 0.00 0.00 88 1013.8
20260507101225 29 197 0.0 0.0 0.00 0.00 0.00 88 1013.9
20260507100722 29 197 0.0 0.0 0.00 0.00 0.00 87 1014.0
20260507100221 29 197 0.0 0.0 0.00 0.00 0.00 87 1013.8
20260507095719 29 196 0.0 0.0 0.00 0.00 0.00 85 1013.9
20260507095215 30 197 0.0 0.0 0.00 0.00 0.00 85 1014.0
20260507094712 30 196 0.0 0.0 0.00 0.00 0.00 84 1013.9
20260507094209 31 197 0.0 0.0 0.00 0.00 0.00 83 1014.0
20260507093705 31 199 0.0 0.0 0.00 0.00 0.00 83 1013.9
20260507093204 32 200 0.0 0.0 0.00 0.00 0.00 82 1014.2
20260507092701 33 203 0.0 0.0 0.00 0.00 0.00 80 1014.1
20260507092157 33 203 0.0 0.0 0.00 0.00 0.00 80 1014.0
20260507091654 33 203 0.0 0.0 0.00 0.00 0.00 80 1014.0
20260507091150 33 203 0.0 0.0 0.00 0.00 0.00 80 1013.9
20260507090646 33 203 0.0 0.0 0.00 0.00 0.00 79 1014.0
20260507090143 33 203 0.0 0.0 0.00 0.00 0.00 79 1014.0
20260507085640 33 203 0.0 0.0 0.00 0.00 0.00 79 1014.1
20260507085137 33 204 0.0 0.0 0.00 0.00 0.00 82 1014.1
20260507084634 32 204 0.0 0.0 0.00 0.00 0.00 84 1014.1
20260507084130 32 205 0.0 0.0 0.00 0.00 0.00 85 1014.1
20260507083627 32 202 0.0 0.0 0.00 0.00 0.00 84 1013.9
20260507083124 33 203 0.0 0.0 0.00 0.00 0.00 84 1014.0
20260507082620 33 203 0.0 0.0 0.00 0.00 0.00 83 1013.8
20260507082116 33 201 0.0 0.0 0.00 0.00 0.00 84 1014.1
20260507081613 33 203 0.0 1.0 0.00 0.00 0.00 86 1014.2
20260507081110 32 209 0.0 0.0 0.00 0.00 0.00 86 1014.0
20260507080606 32 201 0.0 0.0 0.00 0.00 0.00 86 1014.0
20260507080103 32 201 0.0 0.0 0.00 0.00 0.00 85 1014.0
20260507075557 32 201 0.0 0.0 0.00 0.00 0.00 85 1014.0
20260507075054 33 202 0.0 0.0 0.00 0.00 0.00 85 1014.1
20260507074551 33 205 0.0 0.0 0.00 0.00 0.00 85 1014.3
20260507074049 33 206 0.0 0.0 0.00 0.00 0.00 84 1014.3
20260507073545 33 206 0.0 0.0 0.00 0.00 0.00 84 1014.1
20260507073042 33 203 0.0 0.0 0.00 0.00 0.00 83 1014.1
20260507072539 33 203 0.0 0.0 0.00 0.00 0.00 83 1014.1
20260507072036 33 204 0.0 0.0 0.00 0.00 0.00 82 1014.2
20260507071534 33 200 0.0 0.0 0.00 0.00 0.00 81 1014.3
20260507071030 34 201 0.0 0.0 0.00 0.00 0.00 81 1014.4
20260507070527 34 201 0.0 0.0 0.00 0.00 0.00 80 1014.5
20260507070024 34 201 0.0 0.0 0.00 0.00 0.00 80 1014.4
20260507065520 34 200 0.0 0.0 0.00 0.00 0.00 79 1014.5
20260507065018 34 199 0.0 0.0 0.00 0.00 0.00 79 1014.8
20260507064516 34 199 0.0 0.0 0.00 0.00 0.00 78 1014.5
20260507064014 35 200 0.0 0.0 0.00 0.00 0.00 77 1014.7
20260507063511 35 200 0.0 0.0 0.00 0.00 0.00 77 1014.7
20260507063008 35 199 0.0 0.0 0.00 0.00 0.00 76 1014.6
20260507062504 35 199 0.0 0.0 0.00 0.00 0.00 76 1014.7
20260507062003 35 199 0.0 0.0 0.00 0.00 0.00 75 1014.8
20260507061500 36 199 0.0 0.0 0.00 0.00 0.00 74 1015.0
20260507060958 36 199 0.0 0.0 0.00 0.00 0.00 74 1014.8
20260507060455 36 199 0.0 0.0 0.00 0.00 0.00 74 1014.9
20260507055951 36 199 0.0 0.0 0.00 0.00 0.00 73 1014.8
20260507055446 37 199 0.0 0.0 0.00 0.00 0.00 71 1014.9
20260507054943 37 199 0.0 0.0 0.00 0.00 0.00 71 1014.8
20260507054439 38 199 0.0 0.0 0.00 0.00 0.00 70 1014.9
20260507053937 38 199 0.0 0.0 0.00 0.00 0.00 69 1014.8
20260507053434 39 199 0.0 0.0 0.00 0.00 0.00 68 1014.8
20260507052933 39 199 0.0 0.0 0.00 0.00 0.00 67 1014.9
20260507052430 39 199 0.0 0.0 0.00 0.00 0.00 67 1014.8
20260507051927 39 199 0.0 0.0 0.00 0.00 0.00 67 1015.1
20260507051424 39 199 0.0 0.0 0.00 0.00 0.00 67 1014.9
20260507050921 39 199 0.0 0.0 0.00 0.00 0.00 66 1015.0
20260507050418 40 199 0.0 0.0 0.00 0.00 0.00 66 1014.9
20260507045915 40 199 0.0 0.0 0.00 0.00 0.00 66 1015.0
20260507045411 40 199 0.0 0.0 0.00 0.00 0.00 66 1015.1
20260507044909 40 199 0.0 0.0 0.00 0.00 0.00 65 1015.1
20260507044405 40 199 0.0 0.0 0.00 0.00 0.00 66 1015.0
20260507043901 40 199 0.0 0.0 0.00 0.00 0.00 66 1014.9
20260507043358 40 199 0.0 0.0 0.00 0.00 0.00 65 1015.2
20260507042854 40 199 0.0 0.0 0.00 0.00 0.00 66 1015.2
20260507042350 40 199 0.0 0.0 0.00 0.00 0.00 66 1015.3
20260507041847 40 199 0.0 0.0 0.00 0.00 0.00 65 1015.2
20260507041343 40 199 0.0 0.0 0.00 0.00 0.00 65 1015.3
20260507040841 40 199 0.0 0.0 0.00 0.00 0.00 64 1015.3
20260507040336 40 199 0.0 0.0 0.00 0.00 0.00 64 1015.4
20260507035832 40 199 0.0 0.0 0.00 0.00 0.00 64 1015.3
20260507035328 40 199 0.0 0.0 0.00 0.00 0.00 63 1015.3
20260507034826 39 199 0.0 0.0 0.00 0.00 0.00 63 1015.4
20260507034322 39 199 0.0 0.0 0.00 0.00 0.00 63 1015.3
20260507033821 39 199 0.0 0.0 0.00 0.00 0.00 63 1015.6
20260507033318 39 199 0.0 0.0 0.00 0.00 0.00 62 1015.4
20260507032815 39 199 0.0 0.0 0.00 0.00 0.00 62 1015.3
20260507032311 39 199 0.0 0.0 0.00 0.00 0.00 62 1015.4
20260507031808 39 199 0.0 0.0 0.00 0.00 0.00 63 1015.5
20260507031305 39 199 0.0 0.0 0.00 0.00 0.00 63 1015.5
20260507030801 39 199 0.0 0.0 0.00 0.00 0.00 63 1015.7
20260507030259 39 199 0.0 0.0 0.00 0.00 0.00 62 1015.7
20260507025756 39 199 0.0 0.0 0.00 0.00 0.00 63 1015.5
20260507025253 38 199 0.0 0.0 0.00 0.00 0.00 63 1015.7
20260507024751 38 199 0.0 0.0 0.00 0.00 0.00 62 1015.5
20260507024248 38 199 0.0 0.0 0.00 0.00 0.00 61 1015.7
20260507023743 38 199 0.0 0.0 0.00 0.00 0.00 60 1015.5
20260507023240 39 199 0.0 0.0 0.00 0.00 0.00 60 1015.6
20260507022738 39 199 0.0 0.0 0.00 0.00 0.00 59 1015.6
20260507022234 40 202 0.0 0.0 0.00 0.00 0.00 57 1015.4
20260507021730 40 207 0.0 1.0 0.00 0.00 0.00 57 1015.7
20260507021226 41 200 0.0 0.0 0.00 0.00 0.00 54 1015.7
20260507020724 41 199 0.0 0.0 0.00 0.00 0.00 54 1015.5
20260507020220 41 202 0.0 0.0 0.00 0.00 0.00 53 1015.7
20260507015718 41 204 0.0 0.0 0.00 0.00 0.00 53 1015.7
20260507015215 42 200 0.0 1.0 0.00 0.00 0.00 53 1015.7
20260507014712 42 200 0.0 1.0 0.00 0.00 0.00 51 1015.5
20260507014208 42 232 2.0 2.0 0.00 0.00 0.00 51 1015.7
20260507013705 42 203 0.0 1.0 0.00 0.00 0.00 51 1015.4
20260507013202 43 205 1.0 1.0 0.00 0.00 0.00 51 1015.4
20260507012700 43 212 1.0 2.0 0.00 0.00 0.00 50 1015.6
20260507012155 43 200 0.0 2.0 0.00 0.00 0.00 50 1015.6
20260507011653 43 229 1.0 2.0 0.00 0.00 0.00 50 1015.6
20260507011149 43 223 1.0 2.0 0.00 0.00 0.00 49 1015.5
20260507010644 44 178 1.0 2.0 0.00 0.00 0.00 49 1015.5
20260507010140 44 215 2.0 2.0 0.00 0.00 0.00 48 1015.5
20260507005638 44 260 3.0 5.0 0.00 0.00 0.00 48 1015.6
20260507005133 44 283 4.0 5.0 0.00 0.00 0.00 48 1015.6
20260507004631 44 269 3.0 5.0 0.00 0.00 0.00 47 1015.5
20260507004128 44 236 3.0 5.0 0.00 0.00 0.00 47 1015.7
20260507003624 45 284 3.0 5.0 0.00 0.00 0.00 47 1015.5
20260507003119 45 277 5.0 6.0 0.00 0.00 0.00 46 1015.5
20260507002616 46 251 2.0 6.0 0.00 0.00 0.00 46 1015.6
20260507002111 46 229 6.0 9.0 0.00 0.00 0.00 46 1015.7
20260507001608 45 222 2.0 5.0 0.00 0.00 0.00 47 1015.6
20260507001106 45 246 3.0 3.0 0.00 0.00 0.00 48 1015.6
20260507000602 45 212 1.0 5.0 0.00 0.00 0.00 48 1015.7
20260507000058 45 256 2.0 5.0 0.00 0.00 0.00 48 1015.8
20260506235556 45 339 4.0 5.0 0.00 0.00 0.00 47 1015.7
20260506235050 45 279 3.0 7.0 0.00 0.00 0.00 46 1015.9